User: anonymous   Login
Location: Carr Mill
(33.2054°N, 85.9439°W)
Time: 16:59:05
(UTC+00:00)
Language:

STARLINK-2627 - Orbit

View from above orbital plane
View from above orbital plane
View from above satellite
View from above satellite

Ground track
Ground track

The orbit data is extracted from the following two-line orbital elements,

1 48687C 21044BB  21263.34931271  .00037231  00000-0  26433-3 0  2639
2 48687  53.0461 205.3717 0004101   6.8646 219.9339 15.73182315    18
Epoch (UTC): 20 September 2021 08:23:00
Eccentricity: 0.0004101
inclination: 53.0461°
perigee height: 347 km
apogee height: 352 km
right ascension of ascending node: 205.3717°
argument of perigee: 6.8646°
revolutions per day: 15.73182315
mean anomaly at epoch: 219.9339°
orbit number at epoch: 1

The dashed part of the orbit path shows where the satellite is in the earth's shadow,  

DLR